Location: Avon School (historical)
(37.7514°N, 90.2201°W)
Time: 02:28:16
(UTC+00:00)

Explorer 7 - Pass Details

Date: 15 November 2024
Orbit: 456 x 598 km, 50.3° (Epoch: 03 December)

Event Time Altitude Azimuth Distance (km) Brightness Sun altitude
Exits shadow 10:47:02 15° 3° (N) 1,527 9.0 -22.7°
Drops below altitude 10° 10:48:53 10° 29° (NNE) 1,836 9.7 -22.3°
Sets 10:52:00 0° 53° (NE) 2,765 11.1 -21.7°
